EW2974 Weather Reports


Display with metric or nautical units.
time (UTC)temp
F
wind
direction
speed
MPH
gust
MPH
rain 1hr
in
rain 24hr
in
rain mn
in
humidity
%
barometer
mb
20260506134405 49 197 0.0 0.0 0.00 1.08 0.56 93 1008.0
20260506133905 49 197 0.0 0.0 0.00 1.08 0.56 93 1007.9
20260506133405 49 207 0.0 0.0 0.00 1.08 0.56 94 1008.0
20260506132904 48 211 0.0 0.0 0.00 1.08 0.56 94 1007.9
20260506131904 48 211 0.0 0.0 0.00 1.08 0.56 94 1007.9
20260506130404 48 243 0.0 0.0 0.00 1.08 0.56 94 1007.8
20260506125905 48 240 0.0 5.0 0.00 1.08 0.56 94 1007.7
20260506125405 48 119 0.0 0.0 0.00 1.08 0.56 94 1007.6
20260506124405 47 119 0.0 0.0 0.00 1.08 0.56 94 1007.4
20260506123405 47 119 0.0 0.0 0.00 1.08 0.56 94 1007.4
20260506122904 47 119 0.0 0.0 0.00 1.08 0.56 94 1007.3
20260506121404 47 119 0.0 0.0 0.00 1.09 0.56 94 1007.4
20260506120405 47 119 0.0 0.0 0.00 1.09 0.56 94 1007.3
20260506115905 46 119 0.0 0.0 0.00 1.09 0.56 94 1007.3
20260506115405 46 119 0.0 0.0 0.00 1.09 0.56 94 1007.1
20260506114905 46 119 0.0 0.0 0.00 1.09 0.56 94 1007.2
20260506114405 46 119 0.0 0.0 0.00 1.09 0.56 94 1007.2
20260506113905 46 119 0.0 0.0 0.00 1.09 0.56 94 1007.0
20260506113405 46 119 0.0 0.0 0.00 1.09 0.56 94 1007.0
20260506112905 46 119 0.0 0.0 0.00 1.09 0.56 94 1007.1
20260506112405 46 119 0.0 0.0 0.00 1.09 0.56 94 1007.5
20260506111905 46 119 0.0 0.0 0.01 1.09 0.56 94 1006.7
20260506111405 46 119 0.0 0.0 0.01 1.09 0.56 94 1007.1
20260506110905 46 119 0.0 0.0 0.02 1.09 0.56 94 1006.9
20260506110405 46 119 0.0 0.0 0.02 1.09 0.56 94 1006.5
20260506105905 46 119 0.0 0.0 0.03 1.09 0.56 94 1006.2
20260506105404 46 119 0.0 0.0 0.04 1.09 0.56 94 1005.9
20260506104904 46 119 0.0 0.0 0.04 1.09 0.56 94 1005.6
20260506104405 46 119 0.0 0.0 0.05 1.09 0.56 94 1005.8
20260506103904 46 119 0.0 0.0 0.06 1.09 0.56 94 1005.7
20260506103404 46 119 0.0 0.0 0.07 1.09 0.56 94 1005.5
20260506102905 46 119 0.0 0.0 0.07 1.09 0.56 94 1005.6
20260506102404 46 119 0.0 0.0 0.07 1.09 0.56 94 1005.9
20260506101905 46 119 0.0 0.0 0.06 1.08 0.55 94 1006.2
20260506101405 46 119 0.0 0.0 0.07 1.08 0.55 94 1006.4
20260506100904 46 119 0.0 0.0 0.06 1.07 0.54 94 1006.4
20260506100404 46 119 0.0 0.0 0.06 1.07 0.54 94 1006.4
20260506095904 46 119 0.0 0.0 0.05 1.06 0.53 94 1006.4
20260506095405 46 119 0.0 0.0 0.05 1.05 0.52 94 1006.3
20260506094904 46 119 0.0 0.0 0.05 1.05 0.52 94 1006.1
20260506094405 46 119 0.0 0.0 0.05 1.04 0.51 94 1006.3
20260506093904 46 119 0.0 0.0 0.05 1.03 0.50 94 1006.3
20260506093405 45 119 0.0 0.0 0.05 1.02 0.49 94 1006.2
20260506091905 45 119 0.0 0.0 0.10 1.02 0.49 93 1006.0
20260506091405 45 119 0.0 0.0 0.10 1.01 0.48 93 1005.8
20260506090905 46 119 0.0 0.0 0.12 1.01 0.48 93 1005.9
20260506090404 46 119 0.0 0.0 0.13 1.01 0.48 93 1006.0
20260506085904 46 119 0.0 0.0 0.14 1.01 0.48 94 1006.0
20260506085404 46 119 0.0 0.0 0.15 1.00 0.47 94 1005.8
20260506084905 46 132 0.0 0.0 0.16 1.00 0.47 94 1005.9
20260506084405 46 132 0.0 0.0 0.16 0.99 0.46 93 1006.0
20260506083904 46 132 0.0 0.0 0.16 0.98 0.45 93 1006.1
20260506083404 46 132 0.0 0.0 0.17 0.97 0.44 93 1005.8
20260506082905 46 132 0.0 0.0 0.16 0.96 0.43 93 1005.7
20260506082405 47 132 0.0 0.0 0.15 0.94 0.41 93 1005.7
20260506081905 47 164 0.0 0.0 0.14 0.92 0.39 94 1005.7
20260506081404 47 164 0.0 0.0 0.14 0.91 0.38 94 1005.6
20260506080904 47 164 0.0 0.0 0.13 0.89 0.36 94 1005.6
20260506080405 48 167 0.0 0.0 0.13 0.88 0.35 94 1005.4
20260506073405 48 171 0.0 0.0 0.09 0.80 0.27 94 1005.0
20260506072904 48 171 0.0 0.0 0.10 0.80 0.27 94 1005.0
20260506072405 48 171 0.0 0.0 0.10 0.79 0.26 93 1005.0
20260506071905 48 171 0.0 0.0 0.09 0.78 0.25 94 1005.0
20260506070904 49 171 0.0 0.0 0.09 0.76 0.23 94 1005.1
20260506070404 49 171 0.0 0.0 0.08 0.75 0.22 94 1005.2
20260506061904 49 159 0.0 0.0 0.07 0.69 0.16 94 1005.3
20260506061404 50 159 0.0 0.0 0.06 0.68 0.15 94 1005.4
20260506060404 50 159 0.0 0.0 0.06 0.67 0.14 94 1005.4
20260506050905 50 159 0.0 0.0 0.07 0.61 0.08 94 1006.1
20260506050405 50 159 0.0 0.0 0.08 0.61 0.08 94 1006.2
20260506044404 50 159 0.0 0.0 0.08 0.59 0.06 94 1006.3
20260506043904 50 159 0.0 0.0 0.08 0.59 0.06 94 1006.2
20260506043405 50 159 0.0 0.0 0.08 0.58 0.05 94 1006.3
20260506042905 50 159 0.0 0.0 0.08 0.57 0.04 94 1006.3
20260506042405 50 159 0.0 0.0 0.07 0.56 0.03 94 1006.4
20260506041904 50 159 0.0 0.0 0.08 0.56 0.03 94 1006.4
20260506041404 50 159 0.0 0.0 0.08 0.55 0.02 94 1006.6
20260506040905 50 159 0.0 0.0 0.07 0.54 0.01 94 1006.7
20260506035904 50 159 0.0 0.0 0.09 0.53 0.53 94 1006.5
20260506035405 50 159 0.0 0.0 0.09 0.52 0.52 94 1006.6
20260506034905 50 159 0.0 0.0 0.10 0.52 0.52 94 1006.6
20260506034404 50 159 0.0 0.0 0.10 0.51 0.51 93 1006.7
20260506033905 50 159 0.0 0.0 0.11 0.51 0.51 93 1006.8
20260506033404 51 159 0.0 0.0 0.10 0.50 0.50 93 1007.2
20260506032904 51 159 0.0 0.0 0.09 0.49 0.49 93 1007.4
20260506032404 51 159 0.0 0.0 0.10 0.49 0.49 94 1007.4
20260506031904 51 155 0.0 0.0 0.09 0.48 0.48 93 1007.0
20260506031405 51 155 0.0 3.0 0.09 0.48 0.48 93 1007.0
20260506030405 51 83 0.0 0.0 0.08 0.46 0.46 94 1007.0
20260506025905 51 83 0.0 0.0 0.07 0.44 0.44 93 1006.7
20260506025404 51 83 0.0 0.0 0.06 0.43 0.43 93 1006.6
20260506024904 51 83 0.0 0.0 0.06 0.42 0.42 93 1006.6
20260506024404 51 83 0.0 0.0 0.05 0.41 0.41 93 1006.6
20260506023904 51 83 0.0 0.0 0.04 0.40 0.40 93 1006.6
20260506023404 51 83 0.0 0.0 0.04 0.40 0.40 93 1006.6
20260506020404 52 83 0.0 0.0 0.05 0.38 0.38 93 1006.7
20260506015904 52 83 0.0 0.0 0.04 0.37 0.37 93 1006.7
20260506015405 52 83 0.0 0.0 0.04 0.37 0.37 93 1006.7
20260506014905 52 83 0.0 0.0 0.03 0.36 0.36 93 1006.7
20260506014404 52 83 0.0 0.0 0.03 0.36 0.36 93 1006.7
20260506013904 52 83 0.0 0.0 0.03 0.36 0.36 92 1006.6
20260506013404 52 83 0.0 0.0 0.04 0.36 0.36 93 1006.4
20260506012904 52 83 0.0 0.0 0.05 0.36 0.36 92 1006.4
20260506012404 53 91 0.0 0.0 0.05 0.35 0.35 92 1006.3
20260506011905 53 138 0.0 0.0 0.06 0.34 0.34 92 1006.3
20260506011404 53 138 0.0 0.0 0.07 0.34 0.34 93 1006.3
20260506010904 53 138 0.0 0.0 0.07 0.33 0.33 92 1006.2
20260506010405 53 138 0.0 0.0 0.10 0.33 0.33 92 1006.2
20260506005904 54 138 0.0 0.0 0.14 0.33 0.33 92 1006.2
20260506005404 54 138 0.0 0.0 0.27 0.33 0.33 92 1006.2
20260506004905 54 138 0.0 0.0 0.27 0.33 0.33 92 1006.0
20260506004405 54 138 0.0 0.0 0.28 0.33 0.33 92 1006.1
20260506003905 54 138 0.0 0.0 0.28 0.33 0.33 92 1006.2
20260506003404 54 138 0.0 0.0 0.27 0.32 0.32 91 1006.2
20260506002904 54 138 0.0 0.0 0.26 0.31 0.31 91 1006.2
20260506002404 55 138 0.0 0.0 0.26 0.30 0.30 91 1006.3
20260506001904 55 138 0.0 0.0 0.24 0.28 0.28 91 1006.4
20260506001404 55 138 0.0 0.0 0.23 0.27 0.27 91 1006.4
20260506000404 56 141 0.0 0.0 0.19 0.23 0.23 88 1006.5
20260505235904 57 117 1.0 18.0 0.15 0.19 0.19 89 1006.8
20260505234905 58 267 0.0 0.0 0.02 0.06 0.06 90 1005.7
20260505233905 58 267 0.0 0.0 0.02 0.05 0.05 90 1005.2
20260505233404 59 267 0.0 0.0 0.02 0.05 0.05 89 1005.2
20260505232905 59 267 0.0 0.0 0.02 0.05 0.05 89 1005.1
20260505232404 59 267 0.0 0.0 0.01 0.04 0.04 89 1005.2
20260505231404 59 267 0.0 0.0 0.01 0.04 0.04 88 1005.2
20260505230904 59 267 0.0 0.0 0.01 0.04 0.04 88 1005.2
20260505230405 59 267 0.0 0.0 0.01 0.04 0.04 88 1005.2
20260505225405 60 267 0.0 0.0 0.01 0.04 0.04 87 1005.3
20260505224904 60 267 0.0 0.0 0.01 0.04 0.04 87 1005.3
20260505224405 60 267 0.0 0.0 0.01 0.04 0.04 87 1005.3
20260505223905 60 267 0.0 0.0 0.00 0.03 0.03 87 1005.5
20260505223405 60 267 0.0 0.0 0.00 0.03 0.03 86 1005.5
20260505222905 60 267 0.0 0.0 0.00 0.03 0.03 86 1005.6
20260505222404 61 267 0.0 0.0 0.00 0.03 0.03 85 1005.5
20260505221904 61 265 0.0 0.0 0.00 0.03 0.03 86 1005.4
20260505221404 61 256 0.0 0.0 0.00 0.03 0.03 86 1005.5
20260505220904 61 256 0.0 1.0 0.00 0.03 0.03 85 1005.6
20260505220405 61 256 0.0 1.0 0.00 0.03 0.03 86 1005.5
20260505215904 61 256 0.0 0.0 0.01 0.03 0.03 85 1005.4
20260505215405 61 256 0.0 0.0 0.01 0.03 0.03 86 1005.4
20260505214904 61 256 0.0 0.0 0.02 0.03 0.03 85 1005.2
20260505214404 61 256 0.0 0.0 0.02 0.03 0.03 85 1005.2
20260505213904 61 256 0.0 0.0 0.02 0.03 0.03 85 1005.1
20260505213404 61 256 0.0 0.0 0.02 0.03 0.03 87 1005.0
20260505212905 61 256 0.0 0.0 0.02 0.03 0.03 86 1004.9
20260505212404 62 256 0.0 0.0 0.02 0.03 0.03 85 1005.0
20260505211904 62 256 0.0 0.0 0.02 0.03 0.03 84 1005.0
20260505211404 62 256 0.0 0.0 0.02 0.03 0.03 81 1005.1
20260505210904 63 256 0.0 0.0 0.02 0.03 0.03 78 1005.2
20260505210404 64 256 0.0 0.0 0.02 0.03 0.03 76 1005.4
20260505205904 65 271 0.0 0.0 0.01 0.02 0.02 74 1005.3
20260505205404 66 270 1.0 5.0 0.01 0.02 0.02 71 1005.2
20260505204404 67 263 1.0 8.0 0.00 0.01 0.01 64 1004.6
20260505203904 67 275 0.0 12.0 0.00 0.01 0.01 64 1004.5
20260505203404 67 268 0.0 0.0 0.00 0.01 0.01 64 1004.5
20260505202904 67 237 0.0 5.0 0.00 0.01 0.01 65 1004.6
20260505201905 67 205 0.0 0.0 0.00 0.01 0.01 64 1004.6
20260505201404 67 207 0.0 8.0 0.00 0.01 0.01 64 1004.7
20260505200904 67 286 0.0 12.0 0.00 0.01 0.01 63 1004.8
20260505200404 67 257 1.0 12.0 0.00 0.01 0.01 64 1004.8
20260505195904 67 249 0.0 6.0 0.00 0.01 0.01 64 1004.8
20260505194404 67 250 0.0 5.0 0.00 0.01 0.01 64 1004.8
20260505193904 67 251 1.0 5.0 0.00 0.01 0.01 63 1005.1
20260505193404 67 243 0.0 1.0 0.00 0.01 0.01 64 1005.1
20260505192905 67 254 0.0 6.0 0.00 0.01 0.01 64 1005.2
20260505192404 66 262 1.0 5.0 0.00 0.01 0.01 64 1005.2
20260505191904 66 267 0.0 14.0 0.00 0.01 0.01 64 1005.4
20260505191404 66 234 1.0 6.0 0.00 0.01 0.01 65 1005.5
20260505190904 66 255 0.0 5.0 0.00 0.01 0.01 65 1005.6
20260505190404 66 263 2.0 8.0 0.00 0.01 0.01 65 1005.7
20260505185404 67 281 0.0 3.0 0.00 0.01 0.01 63 1005.5
20260505184904 67 275 0.0 3.0 0.00 0.01 0.01 63 1005.5
20260505182904 68 272 0.0 9.0 0.00 0.01 0.01 62 1005.2
20260505181404 68 268 0.0 14.0 0.00 0.01 0.01 61 1005.1
20260505180904 68 272 4.0 14.0 0.00 0.01 0.01 61 1005.1
20260505180404 68 281 1.0 8.0 0.00 0.01 0.01 61 1005.0
20260505175904 68 252 0.0 6.0 0.00 0.01 0.01 60 1005.1
20260505175404 68 234 2.0 12.0 0.00 0.01 0.01 59 1004.9
20260505174405 69 205 2.0 8.0 0.00 0.01 0.01 60 1004.9
20260505173904 69 261 6.0 21.0 0.00 0.01 0.01 60 1004.9
20260505173404 68 280 2.0 14.0 0.00 0.01 0.01 60 1004.8
20260505172904 68 191 1.0 5.0 0.00 0.01 0.01 62 1004.9
20260505172404 68 244 5.0 12.0 0.00 0.01 0.01 61 1004.9
20260505171904 68 269 2.0 8.0 0.00 0.01 0.01 61 1005.0
20260505171404 69 262 0.0 5.0 0.00 0.01 0.01 61 1005.0
20260505170404 69 215 3.0 25.0 0.00 0.01 0.01 60 1005.0
20260505165904 69 248 7.0 17.0 0.00 0.01 0.01 59 1005.0
20260505165405 69 264 5.0 22.0 0.00 0.01 0.01 59 1004.9
20260505164405 71 185 5.0 14.0 0.00 0.01 0.01 56 1004.8
20260505163904 71 258 7.0 22.0 0.00 0.01 0.01 56 1004.7
20260505163405 72 272 5.0 21.0 0.00 0.01 0.01 55 1004.6
20260505162904 72 206 3.0 21.0 0.00 0.01 0.01 59 1004.5
20260505162404 72 248 1.0 16.0 0.00 0.01 0.01 58 1004.5
20260505161904 71 221 4.0 21.0 0.00 0.01 0.01 58 1004.5
20260505161404 71 282 8.0 17.0 0.00 0.01 0.01 55 1004.3
20260505160404 70 261 9.0 16.0 0.00 0.01 0.01 57 1004.2
20260505152904 68 199 2.0 21.0 0.00 0.01 0.01 61 1004.7
20260505152404 69 225 10.0 22.0 0.00 0.01 0.01 59 1004.8
20260505151904 68 243 8.0 21.0 0.00 0.01 0.01 62 1004.7
20260505150904 67 242 10.0 21.0 0.00 0.01 0.01 62 1004.9
20260505150404 67 276 5.0 16.0 0.00 0.01 0.01 62 1004.8
20260505140404 63 254 4.0 16.0 0.00 0.02 0.01 73 1004.5